contact:dominique.lefevre@mio.osupytheas.fr, maurice.libes@osupytheas.fr, didier.mallarino@osupytheas.fr
Project:EMSO http://www.emso-fr.org/EMSO-France
Depth: 2436.0 m
Title:EMSO Ligure Ouest : Data MII capteur MICROCAT
DateTime_Computer,Latitude,Longitude,Temperature,Conductivity,Pressure,DateTime_Instrument
DateTime_Computer,Latitude,Longitude,degC,S m-1,dbar,DateTime_Instrument
2019-10-02T00:02:24Z,42.805,6.029,13.2957,4.59996,2469.9,2019-10-02T02:02:49Z
2019-10-02T00:05:28Z,42.805,6.029,13.2959,4.60008,2469.9,2019-10-02T02:05:52Z
2019-10-02T00:08:31Z,42.805,6.029,13.2959,4.59996,2469.876,2019-10-02T02:08:55Z
2019-10-02T00:11:34Z,42.805,6.029,13.2961,4.60009,2469.937,2019-10-02T02:11:58Z
2019-10-02T00:14:37Z,42.805,6.029,13.2958,4.60002,2469.923,2019-10-02T02:15:01Z
2019-10-02T00:17:40Z,42.805,6.029,13.2956,4.60014,2469.876,2019-10-02T02:18:05Z
2019-10-02T00:20:44Z,42.805,6.029,13.2959,4.59996,2469.914,2019-10-02T02:21:08Z
2019-10-02T00:23:47Z,42.805,6.029,13.2961,4.59998,2469.876,2019-10-02T02:24:11Z
2019-10-02T00:26:50Z,42.805,6.029,13.2953,4.59994,2469.914,2019-10-02T02:27:15Z
2019-10-02T00:29:53Z,42.805,6.029,13.2958,4.59994,2469.923,2019-10-02T02:30:18Z
2019-10-02T00:32:57Z,42.805,6.029,13.2957,4.60016,2469.89,2019-10-02T02:33:21Z
2019-10-02T00:36:00Z,42.805,6.029,13.2963,4.59996,2469.9,2019-10-02T02:36:24Z
2019-10-02T00:39:03Z,42.805,6.029,13.2963,4.59998,2469.876,2019-10-02T02:39:27Z
2019-10-02T00:42:06Z,42.805,6.029,13.2959,4.59991,2469.89,2019-10-02T02:42:30Z
2019-10-02T00:45:09Z,42.805,6.029,13.2961,4.59998,2469.9,2019-10-02T02:45:34Z
2019-10-02T00:48:13Z,42.805,6.029,13.2964,4.60007,2469.89,2019-10-02T02:48:37Z
2019-10-02T00:51:16Z,42.805,6.029,13.2959,4.60001,2469.9,2019-10-02T02:51:40Z
2019-10-02T00:54:19Z,42.805,6.029,13.2959,4.59997,2469.89,2019-10-02T02:54:43Z
2019-10-02T00:57:22Z,42.805,6.029,13.2957,4.60009,2469.876,2019-10-02T02:57:46Z
2019-10-02T01:00:25Z,42.805,6.029,13.2962,4.60019,2469.914,2019-10-02T03:00:50Z
2019-10-02T01:03:28Z,42.805,6.029,13.2958,4.60017,2469.853,2019-10-02T03:03:53Z
2019-10-02T01:06:32Z,42.805,6.029,13.2959,4.59994,2469.876,2019-10-02T03:06:56Z
2019-10-02T01:09:35Z,42.805,6.029,13.2961,4.59991,2469.853,2019-10-02T03:09:59Z
2019-10-02T01:12:38Z,42.805,6.029,13.2956,4.59993,2469.867,2019-10-02T03:13:02Z
2019-10-02T01:15:41Z,42.805,6.029,13.2958,4.59994,2469.853,2019-10-02T03:16:06Z
2019-10-02T01:18:44Z,42.805,6.029,13.2959,4.59991,2469.853,2019-10-02T03:19:09Z
2019-10-02T01:21:48Z,42.805,6.029,13.2956,4.59997,2469.876,2019-10-02T03:22:12Z
2019-10-02T01:24:51Z,42.805,6.029,13.2957,4.59999,2469.89,2019-10-02T03:25:15Z
2019-10-02T01:27:54Z,42.805,6.029,13.2957,4.59996,2469.83,2019-10-02T03:28:18Z
2019-10-02T01:30:57Z,42.805,6.029,13.2961,4.59993,2469.83,2019-10-02T03:31:21Z
2019-10-02T01:34:00Z,42.805,6.029,13.2960,4.59993,2469.844,2019-10-02T03:34:25Z
2019-10-02T01:37:03Z,42.805,6.029,13.2960,4.60001,2469.853,2019-10-02T03:37:28Z
2019-10-02T01:40:07Z,42.805,6.029,13.2955,4.59986,2469.844,2019-10-02T03:40:31Z
2019-10-02T01:43:10Z,42.805,6.029,13.2957,4.59991,2469.821,2019-10-02T03:43:34Z
2019-10-02T01:46:13Z,42.805,6.029,13.2961,4.59993,2469.844,2019-10-02T03:46:37Z
2019-10-02T01:49:16Z,42.805,6.029,13.2962,4.59987,2469.83,2019-10-02T03:49:40Z
2019-10-02T01:52:19Z,42.805,6.029,13.2960,4.59993,2469.844,2019-10-02T03:52:44Z
2019-10-02T01:55:22Z,42.805,6.029,13.2961,4.59988,2469.844,2019-10-02T03:55:47Z
2019-10-02T01:58:26Z,42.805,6.029,13.2959,4.59979,2469.83,2019-10-02T03:58:50Z
2019-10-02T02:01:29Z,42.805,6.029,13.2961,4.59979,2469.806,2019-10-02T04:01:53Z
2019-10-02T02:04:32Z,42.805,6.029,13.2960,4.59979,2469.844,2019-10-02T04:04:56Z
2019-10-02T02:07:35Z,42.805,6.029,13.2961,4.59975,2469.844,2019-10-02T04:08:00Z
2019-10-02T02:10:38Z,42.805,6.029,13.2959,4.59975,2469.853,2019-10-02T04:11:03Z
2019-10-02T02:13:42Z,42.805,6.029,13.2958,4.59976,2469.844,2019-10-02T04:14:06Z
2019-10-02T02:16:45Z,42.805,6.029,13.2960,4.59972,2469.867,2019-10-02T04:17:09Z
2019-10-02T02:19:48Z,42.805,6.029,13.2962,4.59971,2469.83,2019-10-02T04:20:12Z
2019-10-02T02:22:51Z,42.805,6.029,13.2958,4.59975,2469.844,2019-10-02T04:23:15Z
2019-10-02T02:25:54Z,42.805,6.029,13.2958,4.59972,2469.83,2019-10-02T04:26:19Z
2019-10-02T02:28:57Z,42.805,6.029,13.2958,4.59980,2469.806,2019-10-02T04:29:22Z
2019-10-02T02:32:01Z,42.805,6.029,13.2955,4.59975,2469.806,2019-10-02T04:32:25Z
2019-10-02T02:35:04Z,42.805,6.029,13.2958,4.59969,2469.844,2019-10-02T04:35:28Z
2019-10-02T02:38:07Z,42.805,6.029,13.2959,4.59973,2469.783,2019-10-02T04:38:31Z
2019-10-02T02:41:10Z,42.805,6.029,13.2961,4.59967,2469.83,2019-10-02T04:41:35Z
2019-10-02T02:44:13Z,42.805,6.029,13.2959,4.59968,2469.806,2019-10-02T04:44:38Z
2019-10-02T02:47:17Z,42.805,6.029,13.2961,4.59971,2469.806,2019-10-02T04:47:41Z
2019-10-02T02:50:20Z,42.805,6.029,13.2961,4.59966,2469.821,2019-10-02T04:50:44Z
2019-10-02T02:53:23Z,42.805,6.029,13.2962,4.59968,2469.783,2019-10-02T04:53:47Z
2019-10-02T02:56:26Z,42.805,6.029,13.2956,4.59966,2469.844,2019-10-02T04:56:51Z
2019-10-02T02:59:30Z,42.805,6.029,13.2957,4.59970,2469.806,2019-10-02T04:59:54Z
2019-10-02T03:02:33Z,42.805,6.029,13.2958,4.59964,2469.783,2019-10-02T05:02:57Z
2019-10-02T03:05:36Z,42.805,6.029,13.2963,4.59968,2469.806,2019-10-02T05:06:00Z
2019-10-02T03:08:39Z,42.805,6.029,13.2958,4.59967,2469.783,2019-10-02T05:09:03Z
2019-10-02T03:11:42Z,42.805,6.029,13.2959,4.59975,2469.783,2019-10-02T05:12:07Z
2019-10-02T03:14:46Z,42.805,6.029,13.2960,4.59968,2469.797,2019-10-02T05:15:10Z
2019-10-02T03:17:49Z,42.805,6.029,13.2958,4.59970,2469.783,2019-10-02T05:18:13Z
2019-10-02T03:20:52Z,42.805,6.029,13.2955,4.59967,2469.83,2019-10-02T05:21:16Z
2019-10-02T03:23:55Z,42.805,6.029,13.2964,4.59973,2469.797,2019-10-02T05:24:20Z
2019-10-02T03:26:58Z,42.805,6.029,13.2958,4.59973,2469.797,2019-10-02T05:27:23Z
2019-10-02T03:30:02Z,42.805,6.029,13.2961,4.59975,2469.806,2019-10-02T05:30:26Z
2019-10-02T03:33:05Z,42.805,6.029,13.2963,4.59971,2469.783,2019-10-02T05:33:29Z
2019-10-02T03:36:08Z,42.805,6.029,13.2959,4.59973,2469.797,2019-10-02T05:36:32Z
2019-10-02T03:39:11Z,42.805,6.029,13.2959,4.59969,2469.783,2019-10-02T05:39:36Z
2019-10-02T03:42:14Z,42.805,6.029,13.2959,4.59975,2469.746,2019-10-02T05:42:39Z
2019-10-02T03:45:18Z,42.805,6.029,13.2959,4.59969,2469.821,2019-10-02T05:45:42Z
2019-10-02T03:48:21Z,42.805,6.029,13.2957,4.59972,2469.773,2019-10-02T05:48:45Z
2019-10-02T03:51:24Z,42.805,6.029,13.2958,4.59968,2469.783,2019-10-02T05:51:48Z
2019-10-02T03:54:27Z,42.805,6.029,13.2958,4.59972,2469.797,2019-10-02T05:54:51Z
2019-10-02T03:57:30Z,42.805,6.029,13.2959,4.59968,2469.76,2019-10-02T05:57:55Z
2019-10-02T04:00:34Z,42.805,6.029,13.2957,4.59962,2469.783,2019-10-02T06:00:58Z
2019-10-02T04:03:37Z,42.805,6.029,13.2957,4.59964,2469.797,2019-10-02T06:04:01Z
2019-10-02T04:06:40Z,42.805,6.029,13.2960,4.59964,2469.783,2019-10-02T06:07:04Z
2019-10-02T04:09:43Z,42.805,6.029,13.2959,4.59966,2469.797,2019-10-02T06:10:08Z
2019-10-02T04:12:46Z,42.805,6.029,13.2960,4.59964,2469.773,2019-10-02T06:13:11Z
2019-10-02T04:15:50Z,42.805,6.029,13.2958,4.59963,2469.76,2019-10-02T06:16:14Z
2019-10-02T04:18:53Z,42.805,6.029,13.2958,4.59966,2469.773,2019-10-02T06:19:17Z
2019-10-02T04:21:56Z,42.805,6.029,13.2958,4.59966,2469.797,2019-10-02T06:22:20Z
2019-10-02T04:24:59Z,42.805,6.029,13.2957,4.59970,2469.821,2019-10-02T06:25:23Z
2019-10-02T04:28:02Z,42.805,6.029,13.2961,4.59965,2469.783,2019-10-02T06:28:27Z
2019-10-02T04:31:05Z,42.805,6.029,13.2957,4.59962,2469.773,2019-10-02T06:31:30Z
2019-10-02T04:34:09Z,42.805,6.029,13.2958,4.59961,2469.806,2019-10-02T06:34:33Z
2019-10-02T04:37:12Z,42.805,6.029,13.2961,4.59961,2469.773,2019-10-02T06:37:36Z
2019-10-02T04:40:15Z,42.805,6.029,13.2964,4.59961,2469.797,2019-10-02T06:40:39Z
2019-10-02T04:43:18Z,42.805,6.029,13.2960,4.59966,2469.806,2019-10-02T06:43:43Z
2019-10-02T04:46:21Z,42.805,6.029,13.2958,4.59964,2469.83,2019-10-02T06:46:46Z
2019-10-02T04:49:25Z,42.805,6.029,13.2962,4.59963,2469.844,2019-10-02T06:49:49Z
2019-10-02T04:52:28Z,42.805,6.029,13.2959,4.59966,2469.793,2019-10-02T06:52:52Z
2019-10-02T04:55:31Z,42.805,6.029,13.2962,4.59971,2469.806,2019-10-02T06:55:55Z
2019-10-02T04:58:34Z,42.805,6.029,13.2959,4.59967,2469.83,2019-10-02T06:58:59Z
2019-10-02T05:01:38Z,42.805,6.029,13.2961,4.59964,2469.797,2019-10-02T07:02:02Z
2019-10-02T05:04:41Z,42.805,6.029,13.2962,4.59963,2469.783,2019-10-02T07:05:05Z
2019-10-02T05:07:44Z,42.805,6.029,13.2964,4.59963,2469.806,2019-10-02T07:08:08Z
2019-10-02T05:10:47Z,42.805,6.029,13.2958,4.59964,2469.821,2019-10-02T07:11:11Z
2019-10-02T05:13:50Z,42.805,6.029,13.2961,4.59964,2469.821,2019-10-02T07:14:15Z
2019-10-02T05:16:53Z,42.805,6.029,13.2961,4.59964,2469.783,2019-10-02T07:17:18Z
2019-10-02T05:19:57Z,42.805,6.029,13.2963,4.59970,2469.806,2019-10-02T07:20:21Z
2019-10-02T05:23:00Z,42.805,6.029,13.2962,4.59964,2469.821,2019-10-02T07:23:24Z
2019-10-02T05:26:03Z,42.805,6.029,13.2960,4.59964,2469.844,2019-10-02T07:26:27Z
2019-10-02T05:29:06Z,42.805,6.029,13.2959,4.59966,2469.783,2019-10-02T07:29:31Z
2019-10-02T05:32:09Z,42.805,6.029,13.2964,4.59961,2469.83,2019-10-02T07:32:34Z
2019-10-02T05:35:13Z,42.805,6.029,13.2960,4.59964,2469.806,2019-10-02T07:35:37Z
2019-10-02T05:38:16Z,42.805,6.029,13.2957,4.59961,2469.83,2019-10-02T07:38:40Z
2019-10-02T05:41:19Z,42.805,6.029,13.2961,4.59961,2469.844,2019-10-02T07:41:43Z
2019-10-02T05:44:22Z,42.805,6.029,13.2958,4.59962,2469.806,2019-10-02T07:44:47Z
2019-10-02T05:47:25Z,42.805,6.029,13.2958,4.59961,2469.876,2019-10-02T07:47:50Z
2019-10-02T05:50:29Z,42.805,6.029,13.2961,4.59959,2469.844,2019-10-02T07:50:53Z
2019-10-02T05:53:32Z,42.805,6.029,13.2958,4.59960,2469.83,2019-10-02T07:53:56Z
2019-10-02T05:56:35Z,42.805,6.029,13.2960,4.59959,2469.853,2019-10-02T07:56:59Z
2019-10-02T05:59:38Z,42.805,6.029,13.2959,4.59958,2469.83,2019-10-02T08:00:03Z
2019-10-02T06:02:41Z,42.805,6.029,13.2962,4.59962,2469.83,2019-10-02T08:03:06Z
2019-10-02T06:05:44Z,42.805,6.029,13.2959,4.59960,2469.867,2019-10-02T08:06:09Z
2019-10-02T06:08:48Z,42.805,6.029,13.2964,4.59961,2469.844,2019-10-02T08:09:12Z
2019-10-02T06:11:51Z,42.805,6.029,13.2958,4.59961,2469.83,2019-10-02T08:12:15Z
2019-10-02T06:14:54Z,42.805,6.029,13.2959,4.59959,2469.876,2019-10-02T08:15:18Z
2019-10-02T06:17:57Z,42.805,6.029,13.2963,4.59958,2469.83,2019-10-02T08:18:22Z
2019-10-02T06:21:00Z,42.805,6.029,13.2961,4.59961,2469.89,2019-10-02T08:21:25Z
2019-10-02T06:24:04Z,42.805,6.029,13.2957,4.59961,2469.853,2019-10-02T08:24:28Z
2019-10-02T06:27:07Z,42.805,6.029,13.2960,4.59964,2469.876,2019-10-02T08:27:31Z
2019-10-02T06:30:10Z,42.805,6.029,13.2961,4.59961,2469.853,2019-10-02T08:30:34Z
2019-10-02T06:33:13Z,42.805,6.029,13.2961,4.59962,2469.876,2019-10-02T08:33:38Z
2019-10-02T06:36:16Z,42.805,6.029,13.2963,4.59963,2469.867,2019-10-02T08:36:41Z
2019-10-02T06:39:20Z,42.805,6.029,13.2954,4.59960,2469.876,2019-10-02T08:39:44Z
2019-10-02T06:42:23Z,42.805,6.029,13.2963,4.59960,2469.867,2019-10-02T08:42:47Z
2019-10-02T06:45:26Z,42.805,6.029,13.2958,4.59961,2469.9,2019-10-02T08:45:50Z
2019-10-02T06:48:29Z,42.805,6.029,13.2958,4.59961,2469.9,2019-10-02T08:48:53Z
2019-10-02T06:51:32Z,42.805,6.029,13.2959,4.59958,2469.9,2019-10-02T08:51:57Z
2019-10-02T06:54:36Z,42.805,6.029,13.2959,4.59961,2469.9,2019-10-02T08:55:00Z
2019-10-02T06:57:39Z,42.805,6.029,13.2957,4.59959,2469.937,2019-10-02T08:58:03Z
2019-10-02T07:00:42Z,42.805,6.029,13.2957,4.59958,2469.937,2019-10-02T09:01:06Z
2019-10-02T07:03:45Z,42.805,6.029,13.2961,4.59960,2469.923,2019-10-02T09:04:09Z
2019-10-02T07:06:48Z,42.805,6.029,13.2963,4.59964,2469.937,2019-10-02T09:07:13Z
2019-10-02T07:09:51Z,42.805,6.029,13.2958,4.59963,2469.937,2019-10-02T09:10:16Z
2019-10-02T07:12:55Z,42.805,6.029,13.2964,4.59959,2469.914,2019-10-02T09:13:19Z
2019-10-02T07:15:58Z,42.805,6.029,13.2960,4.59968,2469.937,2019-10-02T09:16:22Z
2019-10-02T07:19:01Z,42.805,6.029,13.2961,4.59963,2469.923,2019-10-02T09:19:25Z
2019-10-02T07:22:04Z,42.805,6.029,13.2957,4.59958,2469.937,2019-10-02T09:22:28Z
2019-10-02T07:25:07Z,42.805,6.029,13.2961,4.59961,2469.923,2019-10-02T09:25:32Z
2019-10-02T07:28:10Z,42.805,6.029,13.2962,4.59961,2469.937,2019-10-02T09:28:35Z
2019-10-02T07:31:14Z,42.805,6.029,13.2958,4.59958,2469.947,2019-10-02T09:31:38Z
2019-10-02T07:34:17Z,42.805,6.029,13.2958,4.59960,2469.97,2019-10-02T09:34:41Z
2019-10-02T07:37:20Z,42.805,6.029,13.2961,4.59958,2469.923,2019-10-02T09:37:44Z
2019-10-02T07:40:23Z,42.805,6.029,13.2961,4.59962,2469.984,2019-10-02T09:40:48Z
2019-10-02T07:43:26Z,42.805,6.029,13.2958,4.59958,2469.96,2019-10-02T09:43:51Z
2019-10-02T07:46:30Z,42.805,6.029,13.2956,4.59959,2469.947,2019-10-02T09:46:54Z
2019-10-02T07:49:33Z,42.805,6.029,13.2957,4.59958,2469.947,2019-10-02T09:49:57Z
2019-10-02T07:52:36Z,42.805,6.029,13.2958,4.59964,2469.984,2019-10-02T09:53:00Z
2019-10-02T07:55:39Z,42.805,6.029,13.2955,4.59966,2469.984,2019-10-02T09:56:04Z
2019-10-02T07:58:42Z,42.805,6.029,13.2960,4.59958,2469.984,2019-10-02T09:59:07Z
2019-10-02T08:01:46Z,42.805,6.029,13.2957,4.59963,2469.984,2019-10-02T10:02:10Z
2019-10-02T08:04:49Z,42.805,6.029,13.2961,4.59964,2469.993,2019-10-02T10:05:13Z
2019-10-02T08:07:52Z,42.805,6.029,13.2961,4.59960,2470.007,2019-10-02T10:08:16Z
2019-10-02T08:10:55Z,42.805,6.029,13.2961,4.59958,2469.993,2019-10-02T10:11:20Z
2019-10-02T08:13:58Z,42.805,6.029,13.2959,4.59958,2469.993,2019-10-02T10:14:23Z
2019-10-02T08:17:02Z,42.805,6.029,13.2958,4.59961,2469.993,2019-10-02T10:17:26Z
2019-10-02T08:20:05Z,42.805,6.029,13.2960,4.59960,2469.993,2019-10-02T10:20:29Z
2019-10-02T08:23:08Z,42.805,6.029,13.2958,4.59959,2470.03,2019-10-02T10:23:32Z
2019-10-02T08:26:11Z,42.805,6.029,13.2956,4.59958,2469.993,2019-10-02T10:26:35Z
2019-10-02T08:29:14Z,42.805,6.029,13.2957,4.59958,2470.017,2019-10-02T10:29:39Z
2019-10-02T08:32:18Z,42.805,6.029,13.2961,4.59958,2469.993,2019-10-02T10:32:42Z
2019-10-02T08:35:21Z,42.805,6.029,13.2960,4.59960,2470.007,2019-10-02T10:35:45Z
2019-10-02T08:38:24Z,42.805,6.029,13.2962,4.59960,2470.03,2019-10-02T10:38:49Z
2019-10-02T08:41:27Z,42.805,6.029,13.2958,4.59963,2470.017,2019-10-02T10:41:52Z
2019-10-02T08:44:31Z,42.805,6.029,13.2961,4.59962,2470.03,2019-10-02T10:44:55Z
2019-10-02T08:47:34Z,42.805,6.029,13.2960,4.59960,2470.04,2019-10-02T10:47:58Z
2019-10-02T08:50:37Z,42.805,6.029,13.2958,4.59965,2469.993,2019-10-02T10:51:02Z
2019-10-02T08:53:41Z,42.805,6.029,13.2961,4.59966,2470.03,2019-10-02T10:54:05Z
2019-10-02T08:56:44Z,42.805,6.029,13.2960,4.59964,2469.993,2019-10-02T10:57:08Z
2019-10-02T08:59:47Z,42.805,6.029,13.2959,4.59964,2470.007,2019-10-02T11:00:11Z
2019-10-02T09:02:50Z,42.805,6.029,13.2960,4.59960,2470.017,2019-10-02T11:03:15Z
2019-10-02T09:05:53Z,42.805,6.029,13.2959,4.59962,2470.017,2019-10-02T11:06:18Z
2019-10-02T09:08:57Z,42.805,6.029,13.2961,4.59966,2470.017,2019-10-02T11:09:21Z
2019-10-02T09:12:00Z,42.805,6.029,13.2957,4.59958,2470.053,2019-10-02T11:12:24Z
2019-10-02T09:15:03Z,42.805,6.029,13.2963,4.59960,2469.993,2019-10-02T11:15:27Z
2019-10-02T09:18:06Z,42.805,6.029,13.2958,4.59964,2469.993,2019-10-02T11:18:31Z
2019-10-02T09:21:09Z,42.805,6.029,13.2960,4.59961,2470.017,2019-10-02T11:21:34Z
2019-10-02T09:24:13Z,42.805,6.029,13.2964,4.59963,2469.993,2019-10-02T11:24:37Z
2019-10-02T09:27:16Z,42.805,6.029,13.2960,4.59959,2469.993,2019-10-02T11:27:40Z
2019-10-02T09:30:19Z,42.805,6.029,13.2961,4.59959,2469.993,2019-10-02T11:30:43Z
2019-10-02T09:33:22Z,42.805,6.029,13.2960,4.59966,2470.017,2019-10-02T11:33:47Z
2019-10-02T09:36:25Z,42.805,6.029,13.2960,4.59961,2469.993,2019-10-02T11:36:50Z
2019-10-02T09:39:29Z,42.805,6.029,13.2964,4.59964,2470.053,2019-10-02T11:39:53Z
2019-10-02T09:42:32Z,42.805,6.029,13.2955,4.59963,2470.017,2019-10-02T11:42:56Z
2019-10-02T09:45:35Z,42.805,6.029,13.2960,4.59961,2469.993,2019-10-02T11:45:59Z
2019-10-02T09:48:38Z,42.805,6.029,13.2957,4.59963,2470.017,2019-10-02T11:49:02Z
2019-10-02T09:51:41Z,42.805,6.029,13.2960,4.59963,2470.03,2019-10-02T11:52:06Z
2019-10-02T09:54:44Z,42.805,6.029,13.2961,4.59961,2470.03,2019-10-02T11:55:09Z
2019-10-02T09:57:48Z,42.805,6.029,13.2954,4.59962,2470.03,2019-10-02T11:58:12Z
2019-10-02T10:00:51Z,42.805,6.029,13.2957,4.59964,2470.053,2019-10-02T12:01:15Z
2019-10-02T10:03:54Z,42.805,6.029,13.2961,4.59962,2470.007,2019-10-02T12:04:18Z
2019-10-02T10:06:57Z,42.805,6.029,13.2958,4.59960,2469.993,2019-10-02T12:07:21Z
2019-10-02T10:10:00Z,42.805,6.029,13.2959,4.59964,2469.993,2019-10-02T12:10:25Z
2019-10-02T10:13:03Z,42.805,6.029,13.2958,4.59960,2470.007,2019-10-02T12:13:28Z
2019-10-02T10:16:07Z,42.805,6.029,13.2962,4.59958,2470.017,2019-10-02T12:16:31Z
2019-10-02T10:19:10Z,42.805,6.029,13.2958,4.59960,2469.97,2019-10-02T12:19:34Z
2019-10-02T10:22:13Z,42.805,6.029,13.2958,4.59962,2469.984,2019-10-02T12:22:37Z
2019-10-02T10:25:16Z,42.805,6.029,13.2957,4.59958,2470.017,2019-10-02T12:25:41Z
2019-10-02T10:28:19Z,42.805,6.029,13.2957,4.59964,2470.03,2019-10-02T12:28:44Z
2019-10-02T10:31:23Z,42.805,6.029,13.2962,4.59961,2469.97,2019-10-02T12:31:47Z
2019-10-02T10:34:26Z,42.805,6.029,13.2961,4.59961,2469.956,2019-10-02T12:34:50Z
2019-10-02T10:37:29Z,42.805,6.029,13.2960,4.59961,2470.03,2019-10-02T12:37:53Z
2019-10-02T10:40:32Z,42.805,6.029,13.2957,4.59962,2470.007,2019-10-02T12:40:57Z
2019-10-02T10:43:35Z,42.805,6.029,13.2957,4.59958,2469.97,2019-10-02T12:44:00Z
2019-10-02T10:46:39Z,42.805,6.029,13.2955,4.59958,2469.993,2019-10-02T12:47:03Z
2019-10-02T10:49:42Z,42.805,6.029,13.2960,4.59958,2470.007,2019-10-02T12:50:06Z
2019-10-02T10:52:45Z,42.805,6.029,13.2958,4.59958,2469.96,2019-10-02T12:53:09Z
2019-10-02T10:55:48Z,42.805,6.029,13.2960,4.59961,2469.984,2019-10-02T12:56:13Z
2019-10-02T10:58:51Z,42.805,6.029,13.2955,4.59964,2469.96,2019-10-02T12:59:16Z
2019-10-02T11:01:55Z,42.805,6.029,13.2957,4.59963,2469.947,2019-10-02T13:02:19Z
2019-10-02T11:04:58Z,42.805,6.029,13.2962,4.59966,2469.947,2019-10-02T13:05:22Z
2019-10-02T11:08:01Z,42.805,6.029,13.2960,4.59961,2469.984,2019-10-02T13:08:25Z
2019-10-02T11:11:04Z,42.805,6.029,13.2959,4.59958,2469.947,2019-10-02T13:11:29Z
2019-10-02T11:14:07Z,42.805,6.029,13.2959,4.59960,2469.947,2019-10-02T13:14:32Z
2019-10-02T11:17:11Z,42.805,6.029,13.2961,4.59961,2469.97,2019-10-02T13:17:35Z
2019-10-02T11:20:14Z,42.805,6.029,13.2959,4.59964,2469.97,2019-10-02T13:20:38Z
2019-10-02T11:23:17Z,42.805,6.029,13.2961,4.59964,2469.97,2019-10-02T13:23:41Z
2019-10-02T11:26:20Z,42.805,6.029,13.2960,4.59960,2469.984,2019-10-02T13:26:45Z
2019-10-02T11:29:23Z,42.805,6.029,13.2963,4.59961,2469.947,2019-10-02T13:29:48Z
2019-10-02T11:32:27Z,42.805,6.029,13.2962,4.59961,2469.947,2019-10-02T13:32:51Z
2019-10-02T11:35:30Z,42.805,6.029,13.2957,4.59962,2469.947,2019-10-02T13:35:54Z
2019-10-02T11:38:33Z,42.805,6.029,13.2961,4.59959,2469.984,2019-10-02T13:38:57Z
2019-10-02T11:41:36Z,42.805,6.029,13.2961,4.59961,2469.984,2019-10-02T13:42:01Z
2019-10-02T11:44:39Z,42.805,6.029,13.2956,4.59958,2469.937,2019-10-02T13:45:04Z
2019-10-02T11:47:43Z,42.805,6.029,13.2959,4.59960,2469.947,2019-10-02T13:48:07Z
2019-10-02T11:50:46Z,42.805,6.029,13.2963,4.59961,2469.923,2019-10-02T13:51:10Z
2019-10-02T11:53:49Z,42.805,6.029,13.2960,4.59959,2469.947,2019-10-02T13:54:13Z
2019-10-02T11:56:52Z,42.805,6.029,13.2961,4.59961,2469.937,2019-10-02T13:57:17Z
2019-10-02T11:59:55Z,42.805,6.029,13.2961,4.59958,2469.96,2019-10-02T14:00:20Z
2019-10-02T12:02:59Z,42.805,6.029,13.2959,4.59958,2469.9,2019-10-02T14:03:23Z
2019-10-02T12:06:02Z,42.805,6.029,13.2957,4.59961,2469.96,2019-10-02T14:06:26Z
2019-10-02T12:09:05Z,42.805,6.029,13.2961,4.59958,2469.923,2019-10-02T14:09:29Z
2019-10-02T12:12:08Z,42.805,6.029,13.2961,4.59957,2469.923,2019-10-02T14:12:33Z
2019-10-02T12:15:11Z,42.805,6.029,13.2961,4.59960,2469.9,2019-10-02T14:15:36Z
2019-10-02T12:18:15Z,42.805,6.029,13.2960,4.59959,2469.923,2019-10-02T14:18:39Z
2019-10-02T12:21:18Z,42.805,6.029,13.2958,4.59966,2469.96,2019-10-02T14:21:42Z
2019-10-02T12:24:21Z,42.805,6.029,13.2960,4.59961,2469.96,2019-10-02T14:24:45Z
2019-10-02T12:27:24Z,42.805,6.029,13.2960,4.59961,2469.9,2019-10-02T14:27:49Z
2019-10-02T12:30:27Z,42.805,6.029,13.2954,4.59958,2469.923,2019-10-02T14:30:52Z
2019-10-02T12:33:31Z,42.805,6.029,13.2960,4.59960,2469.933,2019-10-02T14:33:55Z
2019-10-02T12:36:34Z,42.805,6.029,13.2956,4.59958,2469.96,2019-10-02T14:36:58Z
2019-10-02T12:39:37Z,42.805,6.029,13.2961,4.59958,2469.909,2019-10-02T14:40:01Z
2019-10-02T12:42:40Z,42.805,6.029,13.2960,4.59963,2469.923,2019-10-02T14:43:04Z
2019-10-02T12:45:43Z,42.805,6.029,13.2958,4.59963,2469.9,2019-10-02T14:46:08Z
2019-10-02T12:48:47Z,42.805,6.029,13.2961,4.59961,2469.9,2019-10-02T14:49:11Z
2019-10-02T12:51:50Z,42.805,6.029,13.2957,4.59961,2469.9,2019-10-02T14:52:14Z
2019-10-02T12:54:53Z,42.805,6.029,13.2958,4.59960,2469.937,2019-10-02T14:55:17Z
2019-10-02T12:57:56Z,42.805,6.029,13.2957,4.59961,2469.876,2019-10-02T14:58:21Z
2019-10-02T13:00:59Z,42.805,6.029,13.2958,4.59966,2469.914,2019-10-02T15:01:24Z
2019-10-02T13:04:03Z,42.805,6.029,13.2958,4.59971,2469.96,2019-10-02T15:04:27Z
2019-10-02T13:07:06Z,42.805,6.029,13.2959,4.59961,2469.876,2019-10-02T15:07:30Z
2019-10-02T13:10:09Z,42.805,6.029,13.2962,4.59961,2469.923,2019-10-02T15:10:33Z
2019-10-02T13:13:12Z,42.805,6.029,13.2958,4.59957,2469.9,2019-10-02T15:13:37Z
2019-10-02T13:16:15Z,42.805,6.029,13.2953,4.59957,2469.876,2019-10-02T15:16:40Z
2019-10-02T13:19:19Z,42.805,6.029,13.2958,4.59958,2469.853,2019-10-02T15:19:43Z
2019-10-02T13:22:22Z,42.805,6.029,13.2957,4.59958,2469.876,2019-10-02T15:22:46Z
2019-10-02T13:25:25Z,42.805,6.029,13.2958,4.59958,2469.9,2019-10-02T15:25:49Z
2019-10-02T13:28:28Z,42.805,6.029,13.2958,4.59958,2469.876,2019-10-02T15:28:53Z
2019-10-02T13:31:31Z,42.805,6.029,13.2957,4.59960,2469.876,2019-10-02T15:31:56Z
2019-10-02T13:34:35Z,42.805,6.029,13.2957,4.59969,2469.9,2019-10-02T15:34:59Z
2019-10-02T13:37:38Z,42.805,6.029,13.2963,4.59965,2469.876,2019-10-02T15:38:02Z
2019-10-02T13:40:41Z,42.805,6.029,13.2960,4.59961,2469.89,2019-10-02T15:41:05Z
2019-10-02T13:43:44Z,42.805,6.029,13.2960,4.59961,2469.876,2019-10-02T15:44:09Z
2019-10-02T13:46:47Z,42.805,6.029,13.2958,4.59960,2469.876,2019-10-02T15:47:12Z
2019-10-02T13:49:51Z,42.805,6.029,13.2961,4.59960,2469.9,2019-10-02T15:50:15Z
2019-10-02T13:52:54Z,42.805,6.029,13.2961,4.59962,2469.876,2019-10-02T15:53:18Z
2019-10-02T13:55:57Z,42.805,6.029,13.2958,4.59963,2469.853,2019-10-02T15:56:21Z
2019-10-02T13:59:00Z,42.805,6.029,13.2962,4.59961,2469.839,2019-10-02T15:59:25Z
2019-10-02T14:02:03Z,42.805,6.029,13.2958,4.59958,2469.9,2019-10-02T16:02:28Z
2019-10-02T14:05:07Z,42.805,6.029,13.2960,4.59961,2469.853,2019-10-02T16:05:31Z
2019-10-02T14:08:10Z,42.805,6.029,13.2962,4.59964,2469.876,2019-10-02T16:08:34Z
2019-10-02T14:11:13Z,42.805,6.029,13.2957,4.59961,2469.867,2019-10-02T16:11:37Z
2019-10-02T14:14:16Z,42.805,6.029,13.2958,4.59965,2469.853,2019-10-02T16:14:41Z
2019-10-02T14:17:19Z,42.805,6.029,13.2960,4.59958,2469.867,2019-10-02T16:17:44Z
2019-10-02T14:20:23Z,42.805,6.029,13.2962,4.59962,2469.821,2019-10-02T16:20:47Z
2019-10-02T14:23:26Z,42.805,6.029,13.2957,4.59961,2469.844,2019-10-02T16:23:50Z
2019-10-02T14:26:29Z,42.805,6.029,13.2958,4.59964,2469.876,2019-10-02T16:26:53Z
2019-10-02T14:29:32Z,42.805,6.029,13.2958,4.59973,2469.853,2019-10-02T16:29:56Z
2019-10-02T14:32:35Z,42.805,6.029,13.2960,4.59962,2469.867,2019-10-02T16:33:00Z
2019-10-02T14:35:38Z,42.805,6.029,13.2962,4.59964,2469.853,2019-10-02T16:36:03Z
2019-10-02T14:38:42Z,42.805,6.029,13.2961,4.59961,2469.853,2019-10-02T16:39:06Z
2019-10-02T14:41:45Z,42.805,6.029,13.2960,4.59958,2469.844,2019-10-02T16:42:09Z
2019-10-02T14:44:48Z,42.805,6.029,13.2958,4.59959,2469.844,2019-10-02T16:45:12Z
2019-10-02T14:47:51Z,42.805,6.029,13.2955,4.59960,2469.853,2019-10-02T16:48:16Z
2019-10-02T14:50:54Z,42.805,6.029,13.2957,4.59958,2469.853,2019-10-02T16:51:19Z
2019-10-02T14:53:58Z,42.805,6.029,13.2958,4.59961,2469.844,2019-10-02T16:54:22Z
2019-10-02T14:57:01Z,42.805,6.029,13.2962,4.59960,2469.83,2019-10-02T16:57:25Z
2019-10-02T15:00:04Z,42.805,6.029,13.2960,4.59962,2469.83,2019-10-02T17:00:29Z
2019-10-02T15:03:07Z,42.805,6.029,13.2959,4.59963,2469.844,2019-10-02T17:03:32Z